Other Public Products
Issued by NWS Grand Forks, ND

Home | Current Version | Previous Version | Graphics & Text | Print | Product List | Glossary On
Versions: 1 2 3 4 5 6 7 8 9 10 11 12 13 14 15 16 17 18 19 20 21 22 23 24 25 26 27 28 29 30 31 32 33 34 35 36 37 38 39 40 41 42 43 44 45 46 47 48 49 50
000
FPUS83 KFGF 272010
OPUFGF
PRAIRIE TO PINES WEATHER ROUNDUP
NATIONAL WEATHER SERVICE EASTERN NORTH DAKOTA/GRAND FORKS ND
300 PM CDT THU AUG 27 2015

 **SATELLITE DATA USED TO AUGMENT SKY COVER AT AUTOMATED STATIONS**
 *****  WEATHER ACROSS EASTERN NORTH DAKOTA  *****

CITY           SKY/WX    TMP DP  RH WIND       PRES   REMARKS
GRAND FORKS    PTSUNNY   77  60  55 VRB3      29.93F
GRAND FORKS AF MOSUNNY   77  61  56 S8        29.94F
GRAND CITY NWS   N/A     77 N/A N/A S6          N/A
BUXTON         NOT AVBL
DEVILS LAKE    MOSUNNY   75  61  60 SE9       29.93F
FARGO          PTSUNNY   78  63  59 S6        29.94F
WAHPETON ARPT  CLOUDY    77  63  61 S5        29.95F
$$

 *****  WEATHER ACROSS CENTRAL AND WESTERN NORTH DAKOTA  *****

CITY           SKY/WX    TMP DP  RH WIND       PRES   REMARKS
JAMESTOWN      CLOUDY    75  66  73 S5        29.95F
BISMARCK       PTSUNNY   79  67  66 S3        29.95F
MINOT          PTSUNNY   79  62  56 SE7       29.93F
MINOT AFB      PTSUNNY   82  61  47 SE6       29.92S
GARRISON         N/A     80  64  58 S6        29.94F
WILLISTON      PTSUNNY   82  63  52 VRB5      29.93F
DICKINSON      MOSUNNY   87  56  34 S9        29.93F
HETTINGER      MOSUNNY   84  58  40 S9        29.97F
$$

 *****  OTHER OBSERVATIONS NORTHEAST NORTH DAKOTA  *****

CITY           SKY/WX    TMP DP  RH WIND       PRES   REMARKS
WALHALLA       FAIR      77  64  65 MISG      29.93S
LANGDON        FAIR      82  63  51 SE15G21   29.94S
CAVALIER       FAIR      77  61  57 S10       29.93R
GRAFTON        FAIR      77  61  57 S9G22     29.94F
CANDO          NOT AVBL
FORT TOTTEN      N/A     78  64  60 S7        29.95S
ROLLA            N/A     79  59  50 CALM      29.95S
RUGBY          FAIR      81  63  54 SW10      29.93F
 ***** THE ABOVE OBSERVATIONS ARE NON NWS ARE NOT QUALITY
        CONTROLLED AND MAY MIS-REPORT RAIN FOR SNOW...
$$

 *****  OTHER OBSERVATIONS SOUTHEAST NORTH DAKOTA *****

CITY           SKY/WX    TMP DP  RH WIND       PRES   REMARKS
COOPERSTOWN    NOT AVBL
VALLEY CITY    FAIR      73  68  83 S7        29.96S
OAKES            N/A     79  72  78 SE3       29.95S
GWINNER        FAIR      81  70  69 SE3       29.95F
SHEYENNE NWR     N/A     79  68  68 CALM      29.95S
BUFFALO        NOT AVBL
WYNDMERE         N/A     79  66  65 E2          N/A
 ***** THE ABOVE OBSERVATIONS ARE NON NWS ARE NOT QUALITY
       CONTROLLED AND MAY MIS-REPORT RAIN FOR SNOW...
$$

  *****  WEATHER ACROSS NORTHERN MINNESOTA  *****

CITY           SKY/WX    TMP DP  RH WIND       PRES   REMARKS
FLAG ISLAND    SUNNY     68  57  68 S5        29.95S
WARROAD        SUNNY     70  63  78 E7        29.96S
ROSEAU         SUNNY     77  61  57 S7        29.95S
HALLOCK        SUNNY     79  61  53 S8        29.93S
THF RVR FALLS  MOSUNNY  N/A N/A N/A SE9       29.95F
HALSTAD        NOT AVBL
FOSSTON        PTSUNNY   77  61  57 S7        29.97S
BAUDETTE       SUNNY     76  56  49 S10       29.96F
WASKISH        MOSUNNY   75  63  64 W3        29.98R
CROOKSTON      PTSUNNY   77  63  61 SW8       29.95S
$$
  *****  WEATHER ACROSS CENTRAL AND WEST MINNESOTA  *****

CITY           SKY/WX    TMP DP  RH WIND       PRES   REMARKS
BEMIDJI        PTSUNNY   75  62  63 S7        29.98S
PARK RAPIDS    PTSUNNY   77  62  59 S8        29.98S
WADENA         PTSUNNY   73  63  68 SE6       29.97F
DETROIT LAKES  PTSUNNY   73  63  68 S7        29.99S
MOORHEAD       PTSUNNY   77  64  65 SW3       29.95F
FERGUS FALLS   CLOUDY    73  64  73 SE6       29.95F
ELBOW LAKE     FAIR      74  65  73 SE5       29.97S
MORRIS MN      MOSUNNY   75  64  69 S9        29.96F
STAPLES        PTSUNNY   75  63  64 S6        29.98F
WHEATON        PTSUNNY   73  64  73 SE6       29.96F
$$
  *****  WEATHER ELSEWHERE ACROSS MINNESOTA  *****

CITY           SKY/WX    TMP DP  RH WIND       PRES   REMARKS
DULUTH         PTSUNNY   72  57  59 S13       30.04F
INTRNTL FALLS  SUNNY     75  56  51 CALM      29.97F
ELY            SUNNY     73  52  46 S9        30.01F
CLOQUET        MOSUNNY   72  54  53 SE12      30.03F
BRAINERD       PTSUNNY   75  61  61 S10       29.99F
HIBBING        MOSUNNY   74  56  53 VRB7      30.01F
ALEXANDRIA     PTSUNNY   74  64  71 S10       30.00R
SAINT CLOUD    PTSUNNY   74  61  63 S15G23    30.00S
MINNEAPOLIS    CLOUDY    74  60  61 S10       30.03F
$$

  *****  WEATHER ACROSS SOUTH DAKOTA  *****

CITY           SKY/WX    TMP DP  RH WIND       PRES   REMARKS
SIOUX FALLS    CLOUDY    77  66  68 SE8       29.97F
BROOKINGS      CLOUDY    73  68  83 SE9       30.02S
WATERTOWN      CLOUDY    72  66  81 S9        29.99F
HURON          CLOUDY    80  69  69 E9        29.93F
SISSETON         N/A     77  67  71 SE8       29.94S
ABERDEEN       CLOUDY    80  69  69 CALM      29.95S
MITCHELL       PTSUNNY   78  68  71 SE12      29.95F
PIERRE         CLOUDY    75  65  70 NE7       29.95F
MOBRIDGE       CLOUDY    75  69  81 S5        29.95F
RAPID CITY     CLOUDY    78  57  48 N12       30.02F
$$

  *****  SOME WEATHER IN NEARBY STATES *****

CITY           SKY/WX    TMP DP  RH WIND       PRES   REMARKS
GLASGOW MT     SUNNY     85  56  37 SW8       29.92S
GREAT FALLS MT CLOUDY    88  39  17 SW12      30.02F HAZE
CHEYENNE WY    PTSUNNY   76  48  37 N15G26    30.19S
SCOTTSBLUFF NE MOSUNNY   86  55  34 N16G24    30.03S
OMAHA NE       PTSUNNY   81  66  60 S26G32    29.96F
DES MOINES IA  CLOUDY    73  61  65 S12       30.04F
DAVENPORT IA   PTSUNNY   73  59  61 S10       30.14F
CHICAGO IL     MOSUNNY   74  52  46 E6        30.14F
EAU CLAIRE WI  MOSUNNY   75  55  49 S10       30.06F
LA CROSSE WI   PTSUNNY   75  57  53 S12       30.07F
$$

  *****  SOME NATIONAL WEATHER *****

CITY           SKY/WX    TMP DP  RH WIND       PRES   REMARKS
LA GUARDIA NY  PTSUNNY   79  51  37 W8G20     30.02F
RALEIGH NC     PTSUNNY   83  61  47 E7        30.06F
ATLANTA GA     MOSUNNY   84  65  52 E12       30.02F
NEW ORLEANS LA MOSUNNY   85  57  38 NE9       29.98F
OKLAHOMA CITY  PTSUNNY   93  69  45 SE14G21   30.04F HX  98
ALBUQUERQUE NM MOSUNNY   83  53  35 VRB5      30.24F
SALT LAKE CITY MOSUNNY   84  53  34 N9        30.22F
LOS ANGELES CA MOSUNNY   82  66  58 W12       29.97F
BOISE ID       SUNNY     89  37  16 VRB5      30.12F
SEATTLE WA     MOSUNNY   77  48  35 W7        30.08F
$$

*** WEATHER ACROSS MANITOBA...SASKATCHEWAN AND ONTARIO ***
                ***ONTARIO***

CITY           SKY/WX    TMP DP  RH WIND       PRES   REMARKS
GERALDTON      PTSUNNY   72  48  43 SW14      29.99F
THUNDER BAY    MOSUNNY   72  52  49 S9G17     30.02F
SIOUX LOOKOUT  CLOUDY    73  54  49 S6        29.97F
TORONTO        PTSUNNY   66  52  59 W5        30.13F
BIG TROUT LK   LGT RAIN  59  55  88 N3        29.87S
PICKLE LAKE    PTSUNNY   73  48  40 W10       29.92F
DRYDEN         MOSUNNY   73  52  46 S7        29.97F
KENORA         PTSUNNY   72  55  56 SW8       29.97F
$$
                *** MANITOBA***

CITY           SKY/WX    TMP DP  RH WIND       PRES   REMARKS
BRANDON        MOSUNNY   81  61  50 S8        29.90F
DAUPHIN        SUNNY     79  59  50 VRB7      29.88F
ISLAND LAKE    PTSUNNY   63  54  72 NW5       29.90F
PILOT MOUND      N/A     82  55  39 SW5         N/A
THE PAS        MOSUNNY   73  57  56 NW8       29.85F
THOMPSON       PTSUNNY   63  48  59 CALM      29.87F
WINNIPEG       SUNNY     79  61  53 S6        29.91F
LYNN LAKE      PTSUNNY   68  46  45 MISG      29.84F
CHURCHILL      PTSUNNY   63  43  48 W14G20    29.79F
GILLAM         PTSUNNY   61  48  63 W7        29.88F
$$
                ***SASKATCHEWAN***

CITY           SKY/WX    TMP DP  RH WIND       PRES   REMARKS
ESTEVAN        MOSUNNY   86  59  39 SW5       29.92F
KINDERSLEY     CLOUDY    73  55  53 VRB5      29.89F
LLOYDMINSTER   PTSUNNY   75  54  46 SW7       29.89F
PRINCE ALBERT  CLOUDY    75  57  53 S5        29.86F
REGINA         PTSUNNY   81  61  50 S7        29.89F


USA.gov is the U.S. government's official web portal to all federal, state and local government web resources and services.